GW5637 Weather Reports


time (UTC)temp
F
wind
direction
speed
knots
gust
knots
rain 1hr
in
rain 24hr
in
rain mn
in
humidity
%
barometer
mb
20260509032724 70 303 0.0 2.6 0.00 0.62 0.62 85 1010.9
20260509032704 70 303 0.9 2.6 0.00 0.62 0.62 85 1010.8
20260509032204 70 308 1.7 1.7 0.00 0.62 0.62 83 1010.5
20260509031803 70 312 0.0 1.7 0.00 0.62 0.62 83 1010.7
20260509031704 70 278 0.9 0.9 0.00 0.62 0.62 83 1010.5
20260509031204 70 357 0.0 1.7 0.00 0.62 0.62 83 1010.5
20260509030903 70 267 0.0 1.7 0.00 0.62 0.62 83 1010.6
20260509030704 70 287 0.0 1.7 0.00 0.62 0.62 83 1010.5
20260509030204 70 221 0.9 1.7 0.00 0.62 0.62 82 1010.5
20260509030024 70 325 0.9 3.5 0.00 0.62 0.62 82 1010.7
20260509025704 70 322 1.7 4.3 0.00 0.62 0.62 82 1010.5
20260509025403 70 343 0.9 3.5 0.00 0.62 0.62 82 1010.6
20260509025204 70 346 2.6 4.3 0.00 0.62 0.62 83 1010.5
20260509024703 70 350 1.7 2.6 0.00 0.62 0.62 83 1010.2
20260509024503 70 348 0.9 3.5 0.00 0.62 0.62 83 1010.4
20260509024205 70 342 1.7 2.6 0.00 0.62 0.62 82 1010.2
20260509023705 70 7 0.9 1.7 0.00 0.62 0.62 81 1009.8
20260509023603 70 6 0.0 2.6 0.00 0.62 0.62 81 1010.1
20260509023204 70 343 0.9 1.7 0.00 0.62 0.62 81 1009.5
20260509022704 71 12 1.7 2.6 0.00 0.62 0.62 80 1009.5
20260509022204 71 105 2.6 4.3 0.00 0.62 0.62 80 1009.1
20260509021803 71 157 0.9 5.2 0.00 0.62 0.62 80 1009.4
20260509021704 71 158 0.0 5.2 0.00 0.62 0.62 80 1009.1
20260509021204 71 148 2.6 4.3 0.00 0.62 0.62 79 1009.1
20260509020903 71 182 0.0 4.3 0.00 0.62 0.62 79 1009.3
20260509020704 71 161 2.6 2.6 0.00 0.62 0.62 79 1009.1
20260509020204 71 248 0.0 2.6 0.00 0.62 0.62 79 1009.1
20260509020024 71 202 0.0 3.5 0.00 0.62 0.62 79 1009.3
20260509015404 71 190 0.0 3.5 0.00 0.62 0.62 79 1009.3
20260509015204 71 158 0.9 2.6 0.00 0.62 0.62 79 1009.1
20260509014704 71 184 1.7 2.6 0.00 0.62 0.62 79 1009.1
20260509014503 71 170 0.0 3.5 0.00 0.62 0.62 79 1009.4
20260509014204 71 145 0.9 2.6 0.00 0.62 0.62 78 1009.1
20260509013704 71 160 0.9 2.6 0.00 0.62 0.62 78 1008.8
20260509013604 71 174 0.0 3.5 0.00 0.62 0.62 78 1009.1
20260509013203 71 194 0.9 2.6 0.00 0.62 0.62 77 1009.1
20260509012724 71 176 0.9 5.2 0.00 0.62 0.62 77 1009.1
20260509012703 71 153 1.7 2.6 0.00 0.62 0.62 77 1008.8
20260509011803 72 161 0.0 5.2 0.00 0.62 0.62 76 1009.1
20260509011704 72 142 0.9 5.2 0.00 0.62 0.62 76 1008.8
20260509011203 72 216 0.9 2.6 0.00 0.62 0.62 76 1008.8
20260509010903 72 255 0.9 3.5 0.00 0.62 0.62 76 1009.1
20260509010704 72 263 1.7 2.6 0.00 0.62 0.62 76 1009.1
20260509010204 72 219 1.7 2.6 0.00 0.62 0.62 76 1009.0
20260509010003 72 285 0.0 3.5 0.00 0.62 0.62 76 1009.0
20260509005704 72 193 0.9 2.6 0.00 0.62 0.62 75 1008.8
20260509005424 72 219 0.0 3.5 0.00 0.62 0.62 75 1009.0
20260509005204 73 3 0.0 2.6 0.00 0.62 0.62 75 1008.8
20260509004210 73 139 0.9 4.3 0.00 0.62 0.62 73 1008.5
20260509003704 73 193 0.9 2.6 0.00 0.62 0.62 72 1008.1
20260509003204 73 239 1.7 4.3 0.00 0.62 0.62 72 1008.1
20260509002704 74 267 0.9 4.3 0.00 0.62 0.62 71 1008.5
20260509002204 74 182 2.6 5.2 0.00 0.62 0.62 70 1008.1
20260509001704 74 179 1.7 5.2 0.00 0.62 0.62 70 1008.1
20260509001204 74 299 2.6 6.1 0.00 0.62 0.62 70 1008.5
20260509000704 75 169 2.6 6.1 0.00 0.62 0.62 69 1008.1
20260509000205 75 189 1.7 6.1 0.00 0.62 0.62 70 1008.1
20260508235704 75 168 2.6 6.1 0.00 0.62 0.62 69 1008.1
20260508235204 75 265 1.7 4.3 0.00 0.62 0.62 69 1008.5
20260508234704 75 269 0.9 5.2 0.00 0.62 0.62 69 1008.5
20260508234203 76 258 0.9 5.2 0.00 0.62 0.62 68 1008.5
20260508233704 76 157 4.3 6.1 0.00 0.62 0.62 67 1008.5
20260508233204 77 188 2.6 5.2 0.00 0.62 0.62 67 1008.5
20260508232704 77 222 1.7 4.3 0.00 0.62 0.62 68 1008.5
20260508232204 77 172 1.7 4.3 0.00 0.62 0.62 67 1008.6
20260508231704 77 263 2.6 4.3 0.00 0.62 0.62 68 1008.5
20260508231203 77 235 1.7 5.2 0.00 0.62 0.62 68 1008.8
20260508230704 77 166 4.3 6.1 0.00 0.62 0.62 67 1008.5
20260508230204 78 161 4.3 4.3 0.00 0.62 0.62 67 1008.5
20260508225704 78 213 1.7 4.3 0.00 0.62 0.62 66 1008.5
20260508224704 79 263 1.7 4.3 0.00 0.62 0.62 65 1008.8
20260508224204 80 228 0.0 4.3 0.00 0.62 0.62 63 1008.5
20260508223204 80 168 5.2 6.1 0.00 0.62 0.62 61 1008.5
20260508222704 80 194 0.9 5.2 0.00 0.62 0.62 65 1009.0
20260508222204 80 247 2.6 6.1 0.00 0.62 0.62 63 1008.5
20260508221803 80 225 0.9 5.2 0.00 0.62 0.62 62 1009.1
20260508221704 79 302 1.7 5.2 0.00 0.62 0.62 63 1008.5
20260508221203 79 257 1.7 5.2 0.00 0.62 0.62 64 1008.1
20260508220924 79 215 0.9 5.2 0.00 0.62 0.62 64 1008.8
20260508220704 79 198 2.6 5.2 0.00 0.62 0.62 65 1008.5
20260508220024 79 199 0.0 5.2 0.00 0.62 0.62 62 1008.7
20260508215704 79 196 1.7 4.3 0.00 0.62 0.62 63 1008.5
20260508215403 79 169 0.0 4.3 0.00 0.62 0.62 63 1009.1
20260508214704 78 149 1.7 6.1 0.00 0.62 0.62 64 1008.5
20260508214503 78 159 0.9 7.0 0.00 0.62 0.62 64 1008.9
20260508214204 78 172 2.6 7.0 0.00 0.62 0.62 63 1008.1
20260508213603 78 187 0.9 7.0 0.00 0.62 0.62 63 1008.7
20260508213204 79 196 1.7 5.2 0.00 0.62 0.62 63 1008.5
20260508212724 79 163 0.9 6.1 0.00 0.62 0.62 63 1008.8
20260508212704 79 167 1.7 5.2 0.00 0.62 0.62 62 1008.2
20260508212204 78 190 1.7 7.8 0.00 0.62 0.62 64 1008.8
20260508211824 78 167 0.9 7.8 0.00 0.62 0.62 62 1009.4
20260508211703 79 71 1.7 7.8 0.00 0.62 0.62 62 1009.1
20260508210903 78 222 0.0 7.0 0.00 0.62 0.62 63 1009.7
20260508210704 78 294 0.0 7.0 0.00 0.62 0.62 64 1009.5
20260508210003 77 202 0.9 5.2 0.00 0.62 0.62 65 1010.1
20260508205704 77 228 1.7 5.2 0.00 0.62 0.62 65 1009.8
20260508205403 77 199 0.9 7.0 0.00 0.62 0.62 64 1010.2
20260508205204 77 259 1.7 5.2 0.00 0.62 0.62 64 1009.8
20260508204503 78 217 0.9 7.0 0.00 0.62 0.62 63 1010.4
20260508204204 78 214 2.6 5.2 0.00 0.62 0.62 63 1010.2
20260508203704 79 235 2.6 4.3 0.00 0.62 0.62 64 1010.2
20260508203624 79 193 0.9 5.2 0.00 0.62 0.62 64 1010.7
20260508202703 78 177 0.9 5.2 0.00 0.62 0.62 66 1010.5
20260508202204 78 148 2.6 5.2 0.00 0.62 0.62 64 1010.2
20260508201803 78 206 0.9 5.2 0.00 0.62 0.62 62 1010.6
20260508201704 79 179 2.6 6.1 0.00 0.62 0.62 62 1010.2
20260508201203 79 254 1.7 7.0 0.00 0.62 0.62 61 1010.2
20260508200903 79 198 0.9 7.0 0.00 0.62 0.62 60 1010.7
20260508200204 79 149 2.6 6.1 0.00 0.62 0.62 61 1010.2
20260508200003 79 178 0.9 6.1 0.00 0.62 0.62 61 1010.8
20260508195403 80 232 0.9 5.2 0.00 0.62 0.62 61 1010.9
20260508195204 80 245 2.6 5.2 0.00 0.62 0.62 59 1010.5
20260508194704 80 239 1.7 7.8 0.00 0.62 0.62 61 1010.4
20260508194503 80 206 0.9 7.8 0.00 0.62 0.62 61 1011.0
20260508194205 80 180 2.6 7.8 0.00 0.62 0.62 60 1010.5
20260508193704 80 237 4.3 5.2 0.00 0.62 0.62 61 1010.5
20260508193603 80 213 0.9 4.3 0.00 0.62 0.62 61 1010.9
20260508193204 80 220 1.7 4.3 0.00 0.62 0.62 60 1010.5
20260508192704 79 173 3.5 6.1 0.00 0.62 0.62 62 1010.8
20260508192204 79 101 0.9 6.1 0.00 0.62 0.62 55 1010.8
20260508191803 80 206 0.9 7.0 0.00 0.62 0.62 60 1011.4
20260508191704 79 214 2.6 7.0 0.00 0.62 0.62 60 1010.8
20260508190903 79 210 0.9 5.2 0.00 0.62 0.62 60 1011.4
20260508190704 79 159 1.7 4.3 0.00 0.62 0.62 59 1010.8
20260508190204 78 190 2.6 5.2 0.00 0.62 0.62 58 1011.1
20260508190024 78 194 0.9 7.0 0.00 0.62 0.62 59 1011.3
20260508185704 78 296 1.7 7.0 0.00 0.62 0.62 60 1010.8
20260508184703 78 277 1.7 10.4 0.00 0.62 0.62 63 1010.9
20260508184204 78 27 1.7 5.2 0.00 0.62 0.62 59 1011.2
20260508183704 78 274 1.7 5.2 0.00 0.62 0.62 62 1011.5
20260508183208 78 240 1.7 4.3 0.00 0.62 0.62 61 1011.2
20260508182703 77 218 1.7 4.3 0.00 0.62 0.62 62 1011.2
20260508182204 76 187 0.9 4.3 0.00 0.62 0.62 65 1011.4
20260508181704 76 157 0.9 5.2 0.00 0.62 0.62 61 1011.9
20260508180704 76 219 0.9 6.1 0.00 0.62 0.62 64 1011.9
20260508180204 76 179 2.6 7.0 0.00 0.62 0.62 60 1011.9
20260508175704 75 150 0.9 7.0 0.00 0.62 0.62 61 1012.2
20260508174704 75 230 2.6 6.1 0.00 0.62 0.62 62 1012.2
20260508173704 74 352 0.9 2.6 0.00 0.62 0.62 64 1012.3
20260508173204 74 15 1.7 4.3 0.00 0.62 0.62 62 1012.5
20260508172704 74 158 0.9 4.3 0.00 0.62 0.62 66 1012.5
20260508172203 74 294 1.7 5.2 0.00 0.62 0.62 66 1012.9
20260508171703 73 212 0.0 5.2 0.00 0.62 0.62 67 1012.9
20260508171204 73 152 1.7 5.2 0.00 0.62 0.62 66 1012.9
20260508170704 73 212 3.5 5.2 0.00 0.62 0.62 65 1013.2
20260508170204 73 344 0.9 6.1 0.00 0.62 0.62 71 1013.2
20260508165704 73 65 1.7 6.1 0.00 0.62 0.62 69 1013.2
20260508164704 72 205 1.7 5.2 0.00 0.62 0.62 70 1013.5
20260508164503 72 178 0.9 7.0 0.00 0.62 0.62 70 1013.7
20260508164204 72 164 2.6 7.0 0.00 0.62 0.62 67 1013.6
20260508163703 72 163 1.7 6.1 0.00 0.62 0.62 70 1013.9
20260508163603 72 178 0.9 6.1 0.00 0.62 0.62 70 1014.1
20260508163204 72 170 1.7 4.3 0.00 0.62 0.62 69 1013.9
20260508162724 71 170 0.9 4.3 0.00 0.62 0.62 70 1014.2
20260508162704 71 140 2.6 4.3 0.00 0.62 0.62 71 1014.1
20260508161803 69 147 0.9 6.1 0.00 0.62 0.62 74 1014.1
20260508161705 69 353 0.9 5.2 0.00 0.62 0.62 71 1014.2
20260508160924 70 196 0.0 6.1 0.00 0.62 0.62 69 1014.6
20260508160704 70 280 0.9 5.2 0.00 0.62 0.62 70 1014.2
20260508160204 69 207 0.9 2.6 0.00 0.62 0.62 72 1014.2
20260508160003 69 179 0.9 3.5 0.00 0.62 0.62 72 1014.4
20260508155704 69 153 2.6 2.6 0.00 0.62 0.62 74 1014.2
20260508155424 68 172 0.9 3.5 0.00 0.62 0.62 73 1014.5
20260508154705 68 218 1.7 1.7 0.00 0.62 0.62 75 1014.6
20260508154503 68 251 0.0 3.5 0.00 0.62 0.62 75 1014.8
20260508154203 68 252 0.9 2.6 0.00 0.62 0.62 76 1014.6
20260508153704 68 44 0.9 5.2 0.00 0.62 0.62 76 1014.6
20260508153603 68 37 0.0 7.0 0.00 0.62 0.62 76 1014.6
20260508153204 69 151 2.6 7.0 0.00 0.62 0.62 72 1014.6
20260508152724 69 32 0.0 7.0 0.00 0.62 0.62 75 1014.6
20260508152704 69 38 1.7 7.0 0.00 0.62 0.62 76 1014.5
20260508152204 67 313 0.9 2.6 0.00 0.62 0.62 84 1014.6
20260508151803 67 156 0.9 3.5 0.00 0.62 0.62 80 1014.6
20260508151203 67 247 1.7 4.3 0.00 0.62 0.62 79 1014.6
20260508150903 66 141 0.9 3.5 0.00 0.62 0.62 79 1014.6
20260508150704 66 159 2.6 2.6 0.00 0.62 0.62 80 1014.6
20260508150204 66 168 1.7 2.6 0.00 0.62 0.62 81 1014.9
20260508150004 66 110 0.0 3.5 0.00 0.62 0.62 81 1014.8
20260508145704 66 151 1.7 2.6 0.00 0.62 0.62 79 1014.9
20260508145403 66 16 0.0 2.6 0.00 0.62 0.62 80 1014.8
20260508145204 66 29 0.0 2.6 0.01 0.62 0.62 81 1014.9
20260508144709 65 179 0.9 4.3 0.01 0.62 0.62 84 1015.0
20260508144503 65 154 0.0 4.3 0.00 0.62 0.62 84 1014.9
20260508144204 65 160 2.6 4.3 0.01 0.62 0.62 86 1014.9
20260508143704 65 119 0.0 2.6 0.01 0.62 0.62 86 1014.9
20260508143603 65 77 0.0 2.6 0.00 0.62 0.62 86 1014.9
20260508143204 65 23 0.9 2.6 0.01 0.62 0.62 87 1015.0
20260508142704 64 75 0.9 2.6 0.01 0.62 0.62 89 1015.2
20260508142204 64 156 1.7 2.6 0.01 0.62 0.62 90 1015.2
20260508141803 64 300 0.0 2.6 0.01 0.62 0.62 90 1015.1
20260508141704 63 327 0.9 2.6 0.01 0.62 0.62 90 1015.2
20260508141204 63 249 1.7 2.6 0.01 0.62 0.62 88 1015.2
20260508140903 63 100 0.0 2.6 0.01 0.62 0.62 90 1015.1
20260508140704 63 39 1.7 2.6 0.01 0.62 0.62 91 1015.2
20260508140204 63 131 1.7 2.6 0.01 0.62 0.62 92 1015.2
20260508140003 63 142 0.0 2.6 0.01 0.62 0.62 92 1015.0
20260508135704 62 82 0.0 1.7 0.01 0.62 0.62 94 1015.2
20260508135403 62 189 0.0 1.7 0.01 0.62 0.62 95 1015.2
20260508135204 62 244 0.0 1.7 0.00 0.61 0.61 95 1015.2
20260508134704 61 13 0.9 1.7 0.00 0.61 0.61 95 1015.5
20260508133704 61 119 1.7 5.2 0.00 0.61 0.61 97 1015.2
20260508133204 61 182 1.7 2.6 0.01 0.61 0.61 97 1015.2
20260508132704 61 177 0.0 2.6 0.01 0.61 0.61 97 1015.2
20260508132203 60 149 1.7 4.3 0.01 0.61 0.61 97 1014.9
20260508130204 60 228 0.9 1.7 0.02 0.61 0.61 97 1015.6
20260508125704 60 125 0.9 2.6 0.02 0.61 0.61 97 1015.6
20260508124704 60 320 0.9 2.6 0.02 0.61 0.61 97 1015.9
20260508124203 59 299 1.7 2.6 0.02 0.61 0.61 97 1015.9
20260508123704 59 144 0.9 2.6 0.02 0.61 0.61 97 1015.7
20260508123204 59 114 0.0 1.7 0.01 0.60 0.60 97 1015.7
20260508122704 59 121 0.9 0.9 0.01 0.60 0.60 97 1015.6
20260508122204 59 131 0.0 1.7 0.10 0.60 0.60 97 1015.6
20260508121704 59 107 0.0 1.7 0.12 0.59 0.59 97 1015.9
20260508121204 59 51 0.9 1.7 0.16 0.59 0.59 97 1015.6
20260508120703 59 156 1.7 2.6 0.19 0.59 0.59 97 1015.6
20260508120203 59 131 0.0 1.7 0.25 0.59 0.59 97 1015.6
20260508115703 59 230 0.0 6.1 0.25 0.59 0.59 97 1015.6
20260508115205 59 185 1.7 6.1 0.29 0.59 0.59 97 1015.5
20260508114704 59 143 2.6 4.3 0.38 0.59 0.59 97 1015.6
20260508114204 59 198 0.0 2.6 0.38 0.59 0.59 97 1015.2
20260508113704 59 58 1.7 2.6 0.38 0.59 0.59 97 1015.2
20260508113603 59 287 0.9 6.1 0.38 0.59 0.59 97 1014.9
20260508113204 59 64 1.7 6.1 0.39 0.59 0.59 97 1015.2
20260508112703 59 171 0.9 6.1 0.40 0.59 0.59 97 1015.0
20260508112204 59 85 1.7 4.3 0.32 0.50 0.50 97 1014.9
20260508111803 59 124 0.9 3.5 0.33 0.49 0.49 97 1014.9
20260508111703 59 150 2.6 4.3 0.32 0.47 0.47 97 1015.2
20260508111204 59 92 1.7 2.6 0.28 0.43 0.43 96 1015.7
20260508110903 59 109 0.0 2.6 0.27 0.42 0.42 96 1015.6
20260508110704 59 239 1.7 1.7 0.25 0.40 0.40 96 1015.6
20260508110204 59 138 0.0 1.7 0.19 0.34 0.34 96 1015.9
20260508110024 59 360 0.0 4.3 0.19 0.34 0.34 96 1015.4
20260508105704 59 10 1.7 4.3 0.19 0.34 0.34 96 1015.9
20260508105403 59 16 0.9 4.3 0.16 0.31 0.31 96 1015.7
20260508105204 59 336 4.3 4.3 0.15 0.30 0.30 96 1015.9
20260508104704 60 133 1.7 1.7 0.06 0.21 0.21 96 1015.9
20260508104503 60 285 0.0 2.6 0.07 0.22 0.22 96 1015.5
20260508104203 60 278 1.7 2.6 0.06 0.21 0.21 95 1016.0
20260508103704 60 316 1.7 2.6 0.06 0.21 0.21 95 1015.6
20260508103603 60 338 0.9 6.1 0.06 0.21 0.21 95 1015.2
20260508103204 60 96 1.7 6.1 0.05 0.20 0.20 95 1015.2
20260508102724 60 302 0.9 6.1 0.04 0.19 0.19 96 1015.5
20260508102704 60 314 4.3 6.1 0.04 0.19 0.19 96 1015.8
20260508102204 60 275 0.9 2.6 0.04 0.18 0.18 96 1014.9
20260508101803 60 193 0.0 1.7 0.02 0.16 0.16 96 1014.3
20260508101704 59 182 0.9 1.7 0.01 0.15 0.15 96 1014.6
20260508100903 59 218 0.0 2.6 0.01 0.15 0.15 96 1014.1
20260508100205 59 193 0.9 2.6 0.02 0.15 0.15 96 1013.9
20260508100003 59 278 0.0 2.6 0.01 0.15 0.15 96 1013.6
20260508095704 59 307 0.9 1.7 0.02 0.15 0.15 96 1014.2
20260508095403 59 288 0.0 2.6 0.01 0.15 0.15 96 1014.1
20260508095204 59 334 0.9 1.7 0.02 0.15 0.15 96 1014.2
20260508094704 59 229 0.0 4.3 0.02 0.15 0.15 96 1014.6
20260508094503 59 185 0.0 3.5 0.01 0.15 0.15 96 1014.2
20260508094204 59 156 1.7 4.3 0.02 0.15 0.15 96 1014.6
20260508093603 59 304 0.0 3.5 0.01 0.15 0.15 96 1014.5
20260508093203 59 339 2.6 2.6 0.02 0.15 0.15 96 1014.6
20260508092704 59 117 0.9 2.6 0.02 0.15 0.15 96 1014.6
20260508091803 59 131 0.9 4.3 0.01 0.14 0.14 95 1014.2
20260508091704 59 146 4.3 4.3 0.02 0.14 0.14 95 1014.6
20260508090903 59 144 0.0 2.6 0.06 0.14 0.14 95 1014.3
20260508090204 59 128 0.9 1.7 0.12 0.13 0.13 94 1015.2
20260508090003 59 311 0.0 3.5 0.13 0.14 0.14 93 1014.9
20260508085704 60 285 0.9 2.6 0.13 0.13 0.13 93 1015.2
20260508085403 60 316 0.9 5.2 0.14 0.14 0.14 93 1014.7
20260508085204 60 349 0.9 5.2 0.13 0.13 0.13 93 1014.9
20260508084704 59 307 2.6 5.2 0.13 0.13 0.13 93 1015.2
20260508084504 59 193 0.9 4.3 0.14 0.14 0.14 94 1014.8
20260508083603 59 159 0.9 4.3 0.14 0.14 0.14 94 1014.5
20260508083205 59 134 1.7 4.3 0.13 0.13 0.13 94 1014.9
20260508082204 59 183 0.9 2.6 0.13 0.13 0.13 93 1015.2
20260508081704 59 222 0.9 6.1 0.12 0.12 0.12 92 1015.2
20260508081204 60 179 2.6 6.1 0.08 0.08 0.08 90 1015.2
20260508080703 60 78 0.9 2.6 0.04 0.04 0.04 89 1016.2
20260508080204 60 305 0.9 1.7 0.01 0.01 0.01 88 1016.3
20260508075704 60 352 0.0 2.6 0.00 0.00 0.00 88 1016.3
20260508075204 59 278 2.6 2.6 0.00 0.00 0.00 90 1016.6
20260508074704 59 293 1.7 2.6 0.00 0.00 0.00 91 1016.3
20260508074203 58 142 0.9 1.7 0.00 0.00 0.00 91 1015.9
20260508073203 58 18 0.0 1.7 0.00 0.00 0.00 92 1015.9
20260508072703 58 237 0.9 1.7 0.00 0.00 0.00 93 1015.9
20260508072204 58 143 0.9 1.7 0.00 0.00 0.00 93 1015.9
20260508071705 58 293 0.9 1.7 0.00 0.00 0.00 93 1016.3
20260508071205 57 325 0.9 1.7 0.00 0.00 0.00 93 1015.9
20260508070704 57 259 0.9 1.7 0.00 0.00 0.00 92 1016.2
20260508065703 57 64 0.0 1.7 0.00 0.00 0.00 92 1016.3
20260508065204 57 99 0.9 1.7 0.00 0.00 0.00 92 1016.6
20260508064504 57 346 0.0 2.6 0.00 0.00 0.00 91 1016.1
20260508064204 57 1 0.9 1.7 0.00 0.00 0.00 91 1016.9
20260508063704 57 322 0.9 1.7 0.00 0.00 0.00 91 1016.9
20260508063204 57 355 0.0 0.9 0.00 0.00 0.00 90 1016.6
20260508062703 57 34 0.0 1.7 0.00 0.00 0.00 90 1016.2
20260508062204 58 11 0.0 1.7 0.00 0.00 0.00 89 1016.8
20260508061704 58 292 0.0 1.7 0.00 0.00 0.00 89 1016.6
20260508061204 58 278 0.0 1.7 0.00 0.00 0.00 89 1016.3
20260508060924 58 10 0.0 1.7 0.00 0.00 0.00 89 1015.9
20260508060204 58 186 0.0 1.7 0.00 0.00 0.00 89 1016.6
20260508060003 58 216 0.0 1.7 0.00 0.00 0.00 89 1016.1
20260508055704 58 247 0.0 1.7 0.00 0.00 0.00 90 1016.6
20260508055403 58 188 0.0 1.7 0.00 0.00 0.00 90 1016.1
20260508055204 58 164 0.0 1.7 0.00 0.00 0.00 89 1016.3
20260508054704 58 148 0.9 1.7 0.00 0.00 0.00 89 1016.3
20260508054503 58 127 0.0 1.7 0.00 0.00 0.00 89 1016.0
20260508054204 58 72 0.0 1.7 0.00 0.00 0.00 90 1016.3
20260508053603 58 171 0.0 1.7 0.00 0.00 0.00 90 1016.2
20260508053204 58 126 0.0 1.7 0.00 0.00 0.00 89 1016.6
20260508052703 58 326 0.9 1.7 0.00 0.00 0.00 89 1016.6
20260508052204 59 4 0.9 1.7 0.00 0.00 0.00 88 1016.9
20260508051803 59 7 0.0 2.6 0.00 0.00 0.00 88 1016.6
20260508051704 59 355 0.0 1.7 0.00 0.00 0.00 87 1016.6
20260508051204 59 194 0.9 0.9 0.00 0.00 0.00 87 1016.9
20260508050903 59 58 0.0 1.7 0.00 0.00 0.00 87 1016.2
20260508050704 59 39 0.0 0.9 0.00 0.00 0.00 87 1016.3
20260508050204 59 193 0.0 1.7 0.00 0.17 0.00 87 1016.6
20260508050003 59 207 0.0 1.7 0.00 0.00 0.00 87 1016.1
20260508045704 59 208 0.0 1.7 0.00 0.17 0.00 87 1016.6
20260508045403 59 259 0.0 1.7 0.00 0.00 0.00 87 1016.2
20260508045203 59 232 0.0 0.9 0.00 0.17 0.00 86 1016.6
20260508044703 59 296 1.7 1.7 0.00 0.17 0.00 87 1016.6
20260508044524 59 310 0.0 1.7 0.00 0.00 0.00 87 1016.0
20260508044204 59 322 0.0 1.7 0.00 0.17 0.00 86 1016.3
20260508043704 59 341 0.0 0.9 0.00 0.17 0.00 86 1016.3
20260508043603 59 326 0.0 1.7 0.00 0.00 0.00 86 1016.0
20260508043204 59 323 0.9 0.9 0.00 0.17 0.00 86 1016.6
20260508042703 59 285 0.0 1.7 0.00 0.00 0.00 86 1016.1
20260508042204 59 310 0.0 1.7 0.00 0.17 0.00 86 1016.6
20260508041824 59 298 0.0 1.7 0.00 0.00 0.00 85 1016.1
20260508041704 59 288 0.9 1.7 0.00 0.17 0.00 85 1016.5
20260508041204 59 315 0.0 0.9 0.00 0.17 0.00 84 1016.6
20260508040903 59 325 0.0 1.7 0.00 0.00 0.00 84 1016.2
20260508040204 59 351 0.9 1.7 0.00 0.17 0.00 84 1016.6
20260508040004 59 197 0.0 1.7 0.00 0.00 0.00 83 1016.2
20260508035704 59 231 0.0 0.9 0.00 0.17 0.00 84 1016.6
20260508035403 59 349 0.0 1.7 0.00 0.00 0.00 84 1016.2
20260508035204 59 37 0.0 0.9 0.00 0.17 0.00 83 1016.3
20260508034704 59 282 0.9 0.9 0.00 0.17 0.00 82 1016.3
20260508034204 60 62 0.0 0.9 0.00 0.17 0.00 82 1016.6
20260508033704 60 0 0.0 0.9 0.00 0.17 0.00 81 1016.3
20260508033204 60 262 0.0 1.7 0.00 0.17 0.00 81 1016.6